Simultaneous Nadir Overpasses (SNOs) Predictions

Prediction of SNOs between AQUA and GOES-15 Satellite Orbit:

Table of predicted SNOs for the next 14.0 days since TLE Epoch: 12/24/2011
Index Date Time (AQUA) AQUA Lat,Lon GOES-15 Lat,Lon Distance(km) Time Diff (sec)
1 12/25/2011 10:25:24 -0.48,-132.66 -0.03,-134.75 237.63 80
2 12/25/2011 22:46:49 -0.64,-137.85 0.04,-134.72 357.00 80
3 12/27/2011 22:34:49 -0.00,-134.95 0.04,-134.74 23.75 80
4 12/29/2011 22:22:52 0.61,-132.05 0.04,-134.75 307.78 80
5 12/30/2011 10:44:12 0.48,-137.22 -0.05,-134.79 276.52 80
6 01/01/2012 10:32:19 -0.13,-134.34 -0.04,-134.80 52.67 80
7 01/03/2012 10:20:30 -0.77,-131.48 -0.04,-134.81 379.74 80
8 01/03/2012 22:42:00 -0.34,-136.69 0.05,-134.78 216.59 80
9 01/05/2012 22:30:14 0.24,-133.83 0.04,-134.78 107.68 80
10 01/06/2012 10:51:37 0.86,-139.02 -0.04,-134.80 479.16 80




NCC Satellite Simultaneous Nadir Overpasses (SNOs) Prediction Service
